Simultaneous Nadir Overpasses (SNOs) Predictions

Prediction of SNOs between NOAA-19 and METOP-C Satellite Orbit:

Table of predicted SNOs for the next 14.0 days since TLE Epoch: 6/5/2021
Index Date (NOAA-19) Time (NOAA-19) Lat,Lon (NOAA-19) SZA (NOAA-19 ) Date (METOP-C) Time (METOP-C) Lat,Lon (METOP-C) SZA (METOP-C ) Distance(km) Time Diff (sec)
1 06/06/2021 00:31:16 80.53,-159.64 59.07 06/06/2021 00:32:27 80.52,-159.72 59.07 2.10 71
2 06/06/2021 01:22:10 -80.52, 7.86 120.93 06/06/2021 01:23:08 -80.53, 7.84 120.90 1.58 58
3 06/06/2021 02:13:16 80.53, 174.98 59.07 06/06/2021 02:13:48 80.53, 175.13 59.09 2.79 32
4 06/06/2021 03:04:09 -80.51, -17.51 120.93 06/06/2021 03:04:29 -80.52, -17.64 120.93 2.54 20
5 06/06/2021 03:55:15 80.52, 149.60 59.06 06/06/2021 03:55:09 80.52, 149.64 59.07 0.84 6
6 06/06/2021 04:46:10 -80.52, -43.24 120.95 06/06/2021 04:45:51 -80.51, -43.13 120.96 2.49 19
7 06/06/2021 05:37:15 80.51, 124.21 59.06 06/06/2021 05:36:31 80.51, 124.16 59.04 1.21 44
8 06/06/2021 06:28:10 -80.52, -68.62 120.95 06/06/2021 06:27:13 -80.50, -68.61 120.98 1.92 57
9 06/17/2021 03:26:02 80.53, 157.05 58.33 06/17/2021 03:27:07 80.54, 156.88 58.34 3.05 65
10 06/17/2021 04:16:58 -80.53, -35.59 121.67 06/17/2021 04:17:49 -80.54, -35.72 121.65 2.89 51
11 06/17/2021 05:08:03 80.54, 131.31 58.32 06/17/2021 05:08:29 80.53, 131.40 58.32 2.32 26
12 06/17/2021 05:58:59 -80.54, -61.32 121.68 06/17/2021 05:59:11 -80.53, -61.20 121.68 2.19 12
13 06/17/2021 06:50:02 80.52, 106.27 58.34 06/17/2021 06:49:50 80.54, 106.24 58.34 2.12 12
14 06/17/2021 07:40:59 -80.53, -86.70 121.68 06/17/2021 07:40:33 -80.52, -86.69 121.70 1.22 26
15 06/17/2021 08:32:02 80.52, 80.89 58.34 06/17/2021 08:31:12 80.53, 80.76 58.32 2.77 50



Historial Predications of SNOs between NOAA-19 and METOP-C
